Kingsville NAS, TX

2:54 PM CDT on June 26, 2017 (GMT -0500)
Kingsville Naval Air Station

Weather History for KNQI - March, 2013

Change the Weather History Date:

Wednesday, March 20, 2013

  Actual Average Record
Temperature  
Mean Temperature 70 °F -  
Max Temperature 80 °F 74 °F 90 °F (2006)
Min Temperature 59 °F 56 °F 37 °F (2001)
Cooling Degree Days 6    
Growing Degree Days 20 (Base 50)    
Moisture  
Dew Point 58 °F    
Average Humidity 67    
Maximum Humidity 90    
Minimum Humidity 39    
Precipitation  
Precipitation 0.00 in - - ()
Sea Level Pressure  
Sea Level Pressure 30.03 in    
Wind  
Wind Speed 16 mph (ENE)    
Max Wind Speed 28 mph    
Max Gust Speed 36 mph    
Visibility 8 miles    
Events      
Averages and records for this station are not official NWS values.
T = Trace of Precipitation, MM = Missing Value Source: NWS Daily Summary

Daily Weather History Graph

Daily Weather History Graph

Search for Another Location

Airport or City:

Trip Planner

Search our weather history database for the weather conditions in past years. The results will help you decide how hot, cold, wet, or windy it might be!

Date:

Astronomy

Mar. 20, 2013 Rise Set
Actual Time 7:34 AM CDT 7:42 PM CDT
Civil Twilight 7:11 AM CDT 8:06 PM CDT
Nautical Twilight 6:44 AM CDT 8:33 PM CDT
Astronomical Twilight 6:17 AM CDT 9:00 PM CDT
Moon 1:46 PM CDT (3/20) 2:47 AM CDT (3/20)
Length of Visible Light 12h 54m
Length of Day
12h 07m
First Quarter, 59% of the Moon is Illuminated
Mar 20
First Quarter
Mar 27
Full
Apr 2
Last Quarter
Apr 10
New
Apr 18
First Quarter

Hourly Weather History & Observations

Time (CDT) Temp. Heat Index Dew Point Humidity Pressure Visibility Wind Dir Wind Speed Gust Speed Precip Events Conditions
12:56 AM 72.0 °F - 68.0 °F 87% 29.87 in 6.0 mi East 10.4 mph - N/A   Overcast
1:56 AM 72.0 °F - 68.0 °F 87% 29.87 in 6.0 mi ENE 10.4 mph - N/A   Overcast
2:37 AM 71.6 °F - 68.0 °F 88% 29.90 in 6.0 mi ENE 10.4 mph - N/A   Overcast
2:56 AM 71.1 °F - 68.0 °F 90% 29.89 in 6.0 mi NE 12.7 mph - N/A   Overcast
3:56 AM 71.1 °F - 68.0 °F 90% 29.90 in 6.0 mi ENE 13.8 mph - N/A   Overcast
4:56 AM 70.0 °F - 66.9 °F 90% 29.93 in 6.0 mi NE 16.1 mph - N/A   Overcast
5:56 AM 70.0 °F - 66.9 °F 90% 29.95 in 6.0 mi NE 17.3 mph 21.9 mph N/A   Overcast
6:16 AM 69.8 °F - 66.2 °F 88% 29.98 in 6.0 mi NE 21.9 mph 25.3 mph N/A   Overcast
6:42 AM 69.8 °F - 66.2 °F 88% 29.99 in 5.0 mi NNE 24.2 mph 29.9 mph N/A   Overcast
6:56 AM 68.0 °F - 64.9 °F 90% 30.00 in 6.0 mi NNE 21.9 mph 28.8 mph N/A   Overcast
7:22 AM 69.8 °F - 64.4 °F 83% 30.02 in 6.0 mi NNE 27.6 mph 34.5 mph N/A   Haze
7:56 AM 64.9 °F - 55.9 °F 73% 30.04 in 6.0 mi NNE 27.6 mph 35.7 mph N/A   Haze
8:49 AM 64.4 °F - 51.8 °F 64% 30.09 in 9.0 mi NE 19.6 mph 26.5 mph N/A   Overcast
8:56 AM 64.9 °F - 51.1 °F 61% 30.09 in 9.0 mi NE 19.6 mph 28.8 mph N/A   Overcast
9:36 AM 68.0 °F - 51.8 °F 56% 30.11 in 9.0 mi NE 21.9 mph 27.6 mph N/A   Overcast
9:56 AM 70.0 °F - 51.1 °F 51% 30.12 in 7.0 mi ENE 25.3 mph 34.5 mph N/A   Mostly Cloudy
10:56 AM 73.0 °F - 50.0 °F 44% 30.12 in 10.0 mi ENE 23.0 mph 32.2 mph N/A   Scattered Clouds
11:56 AM 75.0 °F - 52.0 °F 44% 30.13 in 10.0 mi ENE 21.9 mph 31.1 mph N/A   Scattered Clouds
12:56 PM 78.1 °F - 52.0 °F 40% 30.13 in 10.0 mi ENE 25.3 mph 31.1 mph N/A   Partly Cloudy
1:56 PM 80.1 °F 79.9 °F 53.1 °F 39% 30.10 in 10.0 mi East 17.3 mph 23.0 mph N/A   Scattered Clouds
2:56 PM 79.0 °F - 53.1 °F 40% 30.07 in 10.0 mi NE 12.7 mph 24.2 mph N/A   Mostly Cloudy
3:56 PM 77.0 °F - 54.0 °F 45% 30.06 in 10.0 mi ENE 12.7 mph 24.2 mph N/A   Mostly Cloudy
4:56 PM 77.0 °F - 54.0 °F 45% 30.04 in 10.0 mi ENE 13.8 mph 20.7 mph N/A   Mostly Cloudy
5:56 PM 75.9 °F - 54.0 °F 46% 30.04 in 10.0 mi ENE 15.0 mph - N/A   Mostly Cloudy
6:56 PM 73.0 °F - 55.0 °F 53% 30.04 in 10.0 mi East 16.1 mph - N/A   Mostly Cloudy
7:56 PM 66.9 °F - 55.9 °F 68% 30.05 in 10.0 mi East 17.3 mph - N/A   Mostly Cloudy
8:56 PM 64.9 °F - 46.9 °F 52% 30.06 in 10.0 mi East 15.0 mph - N/A   Scattered Clouds
9:56 PM 63.0 °F - 51.1 °F 65% 30.06 in 10.0 mi ESE 11.5 mph - N/A   Scattered Clouds
10:56 PM 61.0 °F - 53.1 °F 75% 30.05 in 10.0 mi ESE 9.2 mph - N/A   Scattered Clouds
11:56 PM 59.0 °F - 54.0 °F 83% 30.06 in 10.0 mi South 3.5 mph - N/A   Scattered Clouds